Regional Weather Roundup
Issued by NWS

Home | Current Version | Previous Version | Graphics & Text | Print | Product List | Glossary On
Versions: 1 2 3 4 5 6 7 8 9 10 11 12 13 14 15 16 17 18 19 20 21 22 23 24 25 26 27 28 29 30 31 32 33 34 35 36 37 38 39 40 41 42 43 44 45 46 47 48 49 50
000
ASUS45 KSLC 230410
RWRUT

UTAH REGIONAL WEATHER ROUNDUP
NATIONAL WEATHER SERVICE SALT LAKE CITY UT
1000 PM MDT FRI AUG 22 2014

UTZ001>011-023>025-230500-

NORTHERN UTAH

CITY           SKY/WX    TMP DP  RH WIND       PRES   REMARKS
HILL AFB       CLOUDY    57  52  82 E16G25    30.01F
LOGAN          CLEAR     57  54  89 S10       29.98F
OGDEN          CLOUDY    59  54  83 S9        29.98F
PROVO AIRPORT  CLOUDY    59  54  82 SE6       30.10R
SALT LAKE CITY CLOUDY    60  56  86 CALM      29.98F
VERNAL         CLOUDY    62  55  77 N10       30.02R
WENDOVER       MOCLDY    64  52  63 N12       29.99R
HEBER CITY     MIX PCPN  52  50  93 SE8       30.13R
WEST JORDAN    PTCLDY    61  59  94 S8        30.03F

$$

UTZ012>022-026-027-230500-

SOUTHERN UTAH

CITY           SKY/WX    TMP DP  RH WIND       PRES   REMARKS
BRYCE CANYON   CLEAR     56  45  66 S6        30.18R
CEDAR CITY     CLEAR     68  47  46 S13       30.03S
MILFORD        CLOUDY    64  52  64 N21       30.02R
MOAB/CYNLANDS  PTCLDY    72  50  45 SE16      29.93R
PRICE          CLOUDY    60  53  77 N5        30.00F
ST GEORGE      CLOUDY    81  50  34 S5        29.90R
KANAB            N/A     70  46  43 SW8       30.07R

$$

REGIONAL REPORTS     COLORADO/ARIZONA

CITY           SKY/WX    TMP DP  RH WIND       PRES   REMARKS
CRAIG, CO      MOCLDY    57  52  83 CALM      30.09R
GRAND JUNCTION MOCLDY    65  49  56 SE13G22   30.00R
RIFLE          MOCLDY    62  54  74 S5        30.06R
MONTROSE       MOCLDY    59  52  77 SE3       30.12R
CORTEZ         PTCLDY    57  51  80 CALM      30.15S
PAGE, AZ       CLEAR     78  48  34 SW3       29.97R
GRAND CANYON     N/A    N/A N/A N/A MISG        N/A
KINGMAN        CLEAR     73  54  51 S9        30.01R
FLAGSTAFF      CLEAR     56  49  77 W5        30.24S

$$

REGIONAL REPORTS    NEVADA/IDAHO/WYOMING

CITY           SKY/WX    TMP DP  RH WIND       PRES   REMARKS
LAS VEGAS, NV  CLEAR     87  51  28 S20G28    29.79R
ELY            MOCLDY    55  51  86 SW13      30.04R
ELKO           PTCLDY    62  36  37 E6        30.00R
POCATELLO, ID  MOCLDY    52  51  97 CALM      30.05R
BURLEY         TSTM      52  46  80 NE14G24   30.05S
EVANSTON, WY   LGT RAIN  48  47  96 E9        30.17F FOG
ROCK SPRINGS   LGT RAIN  48  45  89 NW15      30.17R

$$


USA.gov is the U.S. government's official web portal to all federal, state and local government web resources and services.